EST,Max TemperatureF,Mean TemperatureF,Min TemperatureF,Max Dew PointF,MeanDew PointF,Min DewpointF,Max Humidity, Mean Humidity, Min Humidity, Max Sea Level PressureIn, Mean Sea Level PressureIn, Min Sea Level PressureIn, Max VisibilityMiles, Mean VisibilityMiles, Min VisibilityMiles, Max Wind SpeedMPH, Mean Wind SpeedMPH, Max Gust SpeedMPH,PrecipitationIn, CloudCover, Events, WindDirDegrees
2013-2-1,15,12,10,10,6,2,85,76,64,30.34,30.22,30.00,10,2,0,22,16,32,0.00,8,Fog-Snow,260
2013-2-2,25,20,14,22,15,7,93,84,68,30.21,30.04,29.97,10,2,0,12,8,16,0.14,8,Fog-Snow,171
2013-2-3,23,19,15,16,12,8,88,73,63,30.05,29.97,29.91,10,5,0,20,9,28,0.00,8,Snow,272
2013-2-4,27,23,18,20,18,14,93,84,74,30.05,29.95,29.86,10,4,0,13,7,20,0.13,8,Fog-Snow,129
2013-2-5,30,22,14,27,21,12,93,85,66,30.03,29.89,29.79,10,4,0,16,6,21,0.05,7,Fog-Snow,233
2013-2-6,33,24,16,23,18,13,88,66,54,30.28,30.19,30.03,10,9,6,13,5,,0.00,5,,158
2013-2-7,37,32,28,34,28,23,100,85,70,30.19,29.99,29.83,7,3,0,12,6,,0.52,8,Fog-Rain-Snow,104
2013-2-8,33,30,28,34,28,20,100,89,64,30.39,30.10,29.84,10,7,1,13,5,22,0.00,7,Snow,4
2013-2-9,34,24,15,22,19,12,93,77,61,30.43,30.34,30.17,10,8,2,13,6,17,0.00,1,,134
2013-2-10,46,37,28,44,32,20,97,79,66,30.15,29.83,29.54,10,8,2,20,11,30,0.10,7,Rain,141
2013-2-11,46,38,30,43,28,22,87,72,64,29.99,29.72,29.55,10,9,2,30,20,45,0.00,8,Snow,246
2013-2-12,30,29,28,23,22,21,78,75,67,30.12,30.04,29.96,10,10,9,21,14,26,0.00,8,,258
2013-2-13,43,33,23,29,25,20,92,76,58,29.96,29.82,29.73,10,7,4,13,5,,0.00,1,,209
2013-2-14,41,36,30,33,29,24,92,76,67,29.95,29.78,29.67,10,9,4,23,10,33,0.00,8,Snow,240
2013-2-15,34,29,24,27,21,10,93,78,49,30.18,30.06,29.94,10,6,0,13,5,18,0.06,8,Fog-Snow,326
2013-2-16,26,22,17,17,11,7,86,70,55,30.15,30.11,30.07,10,4,0,18,10,24,0.00,8,Fog-Snow,299
2013-2-17,26,19,12,16,12,6,88,75,44,30.24,30.16,30.11,10,6,1,8,5,,0.02,6,Snow,117
2013-2-18,51,38,24,44,31,13,90,67,54,30.12,29.73,29.45,10,9,4,22,14,36,0.16,5,Rain,166
2013-2-19,42,30,17,39,16,10,100,81,71,30.10,29.84,29.45,10,2,0,29,23,41,0.10,8,Fog-Rain-Snow,271
2013-2-20,26,21,17,18,14,10,86,77,68,30.35,30.22,30.07,10,3,0,18,12,30,0.00,8,Fog-Snow,308
2013-2-21,26,24,21,18,17,15,78,73,69,30.39,30.30,30.11,10,10,5,21,7,33,0.00,7,,87
2013-2-22,34,28,21,32,23,15,100,86,72,30.11,29.91,29.82,10,4,0,20,15,29,0.11,8,Fog-Snow,136
2013-2-23,30,28,26,24,20,17,81,74,66,29.97,29.93,29.90,10,9,2,18,15,28,0.00,8,Snow,242
2013-2-24,30,24,17,27,23,16,100,82,69,30.18,30.08,29.95,10,9,2,14,9,16,0.00,6,,275
2013-2-25,39,26,12,25,19,11,95,72,51,30.23,30.15,30.06,10,8,4,8,3,,0.00,0,,91
2013-2-26,36,33,30,32,29,21,100,84,59,30.03,29.60,29.48,10,4,0,21,13,38,0.37,7,Fog-Rain-Snow,66
2013-2-27,34,33,32,34,32,30,100,97,93,29.63,29.53,29.47,9,3,1,8,3,,0.10,8,Snow,298
2013-2-28,37,34,30,32,29,25,96,84,76,30.01,29.83,29.63,10,10,8,13,8,22,0.00,8,,359